Wind_Speed
35 21 11 4 6 11 15 12 11 7 13 17 9 5 5 3 16 15 21 15 12 15 9 13 19 17 20 22 23 28 19 10 11 13 11 11 12 15 10 12 11 11 15 12
28 13 5 4 7 11 4 3 6 15 16 3 7 13 10 6 11 17 20 21 19 17 14 13 13 18 21 23 21 24 27 21 15 12 13 13 12 17 14 11 13 8 18 3
22 15 11 13 12 8 8 11 17 22 14 4 7 5 11 8 7 8 13 19 21 15 6 8 9 10 16 20 21 20 20 20 24 20 14 14 12 10 10 10 11 11 12 6
24 22 7 10 10 12 7 14 20 24 11 7 4 14 13 7 14 22 6 2 14 26 15 9 7 13 17 14 18 19 18 20 21 22 21 16 15 13 11 11 11 11 8 8
16 3 13 13 14 14 17 17 6 5 8 5 6 20 24 11 16 14 7 7 7 35 17 17 12 7 8 18 15 19 18 19 19 20 20 19 19 16 13 11 10 10 9 5
19 13 19 12 10 11 5 10 8 12 6 3 14 24 19 10 7 20 13 3 11 19 21 30 9 15 14 14 14 18 18 19 21 20 20 19 18 16 16 12 9 10 11 10
6 6 7 8 10 8 11 9 7 11 13 22 14 18 9 7 18 17 15 3 12 11 19 20 18 26 16 18 17 19 20 21 21 23 21 21 19 16 17 18 17 14 14 16
8 10 14 14 9 6 14 13 1 13 16 10 9 23 16 4 5 3 11 11 15 21 19 31 33 31 20 22 18 21 20 23 24 23 22 21 20 21 18 18 17 19 16 16
7 6 8 16 15 7 8 9 1 13 11 22 21 23 10 16 13 14 8 19 20 16 20 16 32 35 23 21 26 24 24 25 22 26 26 21 19 21 26 18 16 14 16 17
11 8 10 12 8 12 11 14 8 9 13 17 14 12 11 11 27 7 22 27 29 23 21 24 24 25 25 24 24 25 28 16 29 26 26 26 21 22 25 26 18 17 21 19
20 14 7 12 13 9 4 12 10 11 11 15 18 19 26 29 11 10 25 31 30 29 30 27 22 29 36 32 28 23 30 35 33 33 29 27 28 28 29 28 27 18 22 23
26 21 15 11 12 14 8 16 15 12 17 16 21 32 21 15 21 17 33 35 32 25 32 31 26 26 33 33 29 30 33 34 35 35 35 33 30 28 29 31 28 22 24 26
17 19 19 14 13 22 20 21 18 18 13 8 20 24 27 27 22 30 29 31 31 36 36 39 35 33 25 36 16 28 43 37 39 41 39 36 34 32 31 29 31 29 27 28
25 18 22 22 17 20 20 24 31 25 21 16 14 19 30 29 29 33 38 42 46 45 41 43 41 38 40 41 40 39 40 42 42 41 43 44 41 40 35 33 33 35 33 32
16 20 26 27 18 23 23 21 20 27 27 25 27 19 29 36 40 43 46 46 42 39 45 46 46 47 48 49 48 45 44 43 42 42 44 44 44 44 43 39 35 37 38 36
10 14 22 31 26 23 26 11 21 13 15 15 27 31 35 41 44 45 40 38 39 44 47 48 49 49 51 53 51 50 48 43 42 44 45 46 47 47 46 45 40 38 41 41
12 19 20 20 23 36 29 19 16 19 24 31 30 36 40 41 41 39 39 40 42 46 48 49 50 52 53 54 55 53 51 48 43 40 45 46 46 47 47 47 44 39 40 43
29 30 26 25 23 23 22 29 33 34 33 34 40 43 45 44 43 42 43 46 49 51 53 55 56 54 51 49 50 51 49 46 42 35 35 40 41 41 42 43 44 42 40 42
36 27 21 20 20 18 22 29 31 33 30 31 32 33 34 35 39 41 44 48 51 53 56 57 57 54 52 50 45 43 43 42 44 43 40 38 39 39 39 38 39 39 39 42
30 25 19 18 18 18 28 24 24 28 33 31 30 31 33 35 40 45 48 52 55 56 58 59 57 54 48 45 44 43 43 43 43 42 41 37 33 31 32 33 33 35 37 38
27 27 21 18 20 25 27 25 23 27 30 28 29 31 35 39 43 46 49 52 51 47 44 44 44 44 44 45 44 44 43 40 40 39 40 39 37 35 34 35 37 39 37 35
24 25 22 22 24 29 28 23 22 23 25 28 32 36 39 42 46 49 48 43 42 44 46 45 45 45 45 45 43 41 41 40 39 42 45 45 45 44 44 46 45 43 42 42
28 25 24 24 27 30 25 23 22 23 27 31 33 37 41 44 45 40 40 44 48 51 52 51 52 51 50 49 47 46 43 44 46 48 47 49 50 50 50 51 50 45 44 43
27 24 23 23 27 29 24 20 22 26 29 31 34 38 41 39 36 39 44 48 50 48 47 47 47 47 50 52 51 50 50 50 50 50 50 48 50 51 48 48 47 44 44 44
30 28 23 23 25 29 25 24 26 27 29 33 35 37 35 35 37 40 44 44 44 45 45 47 49 48 50 46 45 45 43 43 41 43 42 44 45 45 45 45 46 44 43 43
27 26 26 26 22 26 26 26 24 27 30 32 33 31 33 35 38 39 39 42 40 39 37 32 34 37 34 28 29 33 37 39 40 41 44 44 41 41 39 40 43 42 43 43
Wind_Direction
152 154 120 86 225 173 185 187 225 291 277 304 337 357 168 317 313 308 310 343 11 8 358 6 12 21 20 33 34 34 27 25 34 18 13 3 11 354 334 356 9 2 339 263
163 134 79 152 221 222 237 279 326 270 295 324 35 23 358 294 238 272 282 300 322 358 4 353 16 7 15 17 20 27 35 38 31 24 10 17 19 359 20 14 11 14 13 44
130 85 286 289 278 186 86 279 270 259 280 342 18 259 244 317 264 227 236 285 307 321 320 319 354 20 7 8 10 22 21 25 24 22 14 12 13 9 16 2 358 8 16 48
151 162 201 283 242 192 135 262 252 263 234 249 70 249 292 288 333 332 241 186 312 284 225 341 354 339 346 2 359 3 9 12 9 12 19 7 354 350 351 357 348 350 2 21
152 13 185 244 233 217 195 232 0 280 229 191 180 242 260 282 344 339 263 315 317 276 307 354 350 314 340 337 358 355 358 356 356 356 2 10 7 356 342 337 333 327 325 316
159 181 226 241 249 245 196 135 126 46 28 83 307 238 287 320 353 301 303 317 313 305 333 290 342 323 333 332 349 346 349 345 346 349 350 358 356 353 343 321 312 307 304 297
135 58 13 324 289 267 164 178 55 356 302 299 254 270 236 292 283 300 316 254 275 281 321 309 317 332 336 325 343 336 327 328 334 330 334 338 340 339 326 328 317 312 300 299
43 339 322 316 331 264 196 181 43 322 311 318 271 239 239 232 242 245 305 304 340 344 336 331 315 314 306 313 318 313 314 316 319 316 316 320 325 327 323 325 327 331 317 289
151 335 257 292 320 277 216 166 286 291 316 282 277 261 164 159 209 201 247 309 318 333 329 339 324 314 301 290 302 317 316 314 312 306 308 314 314 321 323 318 321 319 301 298
137 141 267 292 322 302 221 197 203 227 300 262 302 272 197 216 284 352 306 312 312 328 322 307 311 307 301 294 299 306 317 276 316 305 305 308 302 304 310 314 313 307 309 297
176 180 214 294 337 345 165 235 223 230 277 280 302 295 283 274 258 304 292 294 307 324 312 310 301 300 302 295 298 299 311 307 300 303 301 296 295 294 297 301 308 298 296 295
208 210 189 228 263 251 187 232 232 240 268 267 315 306 296 285 295 269 284 301 309 310 309 298 299 295 305 320 297 262 317 306 298 296 296 294 290 287 286 291 290 288 282 289
248 216 209 195 252 237 217 222 244 219 234 277 282 297 311 315 278 282 295 300 302 310 308 298 301 303 300 302 304 265 303 298 297 296 293 290 286 282 278 279 279 279 278 274
264 239 214 199 250 281 286 237 240 234 234 247 267 297 292 293 300 303 303 301 301 305 299 296 302 303 301 303 301 299 296 294 293 291 290 290 288 283 278 275 272 273 271 270
272 244 235 218 235 275 276 289 264 220 221 232 236 259 278 274 280 284 286 295 304 300 295 301 304 303 302 300 298 297 294 292 291 287 283 281 281 281 281 278 272 271 272 270
252 248 228 224 222 255 250 281 269 296 284 242 253 272 256 255 271 283 295 300 299 296 298 301 300 300 297 297 299 296 295 292 285 279 276 275 276 276 276 277 274 270 271 271
275 288 281 269 243 239 251 266 274 248 253 263 259 263 273 281 286 291 295 293 292 291 294 294 294 296 298 298 297 295 291 287 281 277 277 275 272 271 270 270 270 265 264 266
275 286 281 279 276 262 256 244 245 255 255 249 257 267 277 282 287 294 294 294 296 296 297 298 298 298 296 293 292 292 291 289 285 276 269 273 273 272 271 270 269 265 259 259
274 278 281 285 269 271 239 240 241 253 262 266 266 268 277 283 286 286 290 292 294 295 296 297 297 296 295 294 292 288 286 285 285 285 280 272 270 271 272 271 271 270 265 255
275 281 285 283 275 266 264 264 266 265 270 273 283 288 287 288 291 295 298 300 300 300 299 298 298 296 296 293 292 290 288 285 283 281 277 272 266 267 270 273 273 270 268 263
273 287 293 276 271 266 268 277 275 272 283 289 287 288 290 291 297 300 299 300 302 303 304 303 300 296 293 291 290 289 287 284 282 277 272 268 264 263 266 271 277 274 268 263
275 280 283 279 278 275 281 291 289 289 290 292 292 294 299 302 303 303 307 308 305 303 302 301 299 297 294 292 290 287 287 287 282 277 273 270 267 267 270 274 275 271 266 261
274 280 281 278 278 279 286 292 294 292 287 289 296 301 302 302 307 311 308 305 307 307 306 301 296 293 290 287 285 284 284 279 276 275 275 276 275 271 268 269 271 267 265 263
276 278 281 282 280 284 291 289 286 286 291 298 302 300 304 308 308 309 312 313 312 310 308 306 303 299 294 289 285 284 283 281 280 280 283 282 278 275 274 272 270 266 266 260
278 283 284 282 287 288 287 289 291 295 301 297 300 303 310 307 312 315 320 317 313 311 313 311 308 305 302 292 287 281 284 293 291 282 282 285 280 273 273 270 264 264 261 262
264 277 282 283 278 278 284 285 293 296 294 302 304 309 309 313 315 320 322 325 319 324 324 324 329 332 328 318 306 294 292 291 289 284 282 281 278 273 273 271 263 264 261 259
Height
5913 5916 5917 5918 5922 5925 5928 5930 5931 5932 5929 5928 5926 5925 5925 5928 5926 5923 5920 5919 5920 5921 5920 5919 5916 5915 5911 5907 5904 5902 5900 5900 5901 5898 5898 5896 5895 5893 5893 5891 5889 5888 5886 5886
5912 5914 5918 5921 5921 5924 5929 5930 5930 5929 5929 5928 5926 5926 5926 5927 5927 5925 5922 5920 5918 5920 5918 5917 5917 5915 5913 5910 5906 5904 5902 5902 5903 5901 5899 5899 5898 5895 5894 5892 5890 5890 5888 5885
5910 5915 5920 5921 5921 5924 5926 5927 5926 5926 5927 5926 5926 5926 5924 5927 5925 5925 5924 5918 5916 5914 5916 5915 5914 5914 5914 5911 5908 5904 5904 5904 5902 5900 5900 5898 5897 5896 5894 5892 5892 5891 5890 5889
5909 5912 5918 5918 5919 5923 5923 5922 5923 5922 5925 5926 5924 5924 5922 5924 5924 5925 5920 5917 5915 5911 5899 5911 5915 5915 5911 5910 5908 5906 5905 5904 5904 5902 5901 5899 5897 5895 5894 5893 5891 5889 5889 5889
5911 5914 5917 5918 5918 5919 5919 5919 5922 5922 5923 5924 5924 5922 5921 5922 5922 5920 5922 5917 5914 5896 5902 5914 5918 5918 5915 5911 5907 5905 5903 5903 5904 5903 5902 5901 5898 5895 5893 5892 5891 5890 5888 5887
5908 5912 5914 5915 5916 5916 5917 5919 5921 5921 5923 5924 5921 5916 5919 5920 5921 5922 5921 5915 5910 5906 5901 5908 5905 5914 5915 5913 5908 5904 5904 5903 5903 5903 5902 5900 5898 5895 5893 5892 5893 5891 5889 5886
5909 5912 5914 5915 5915 5915 5915 5918 5917 5919 5920 5920 5922 5914 5913 5916 5918 5918 5915 5913 5910 5912 5915 5912 5911 5905 5906 5908 5904 5903 5902 5903 5902 5902 5901 5899 5896 5895 5892 5890 5888 5888 5887 5888
5907 5911 5913 5913 5914 5914 5914 5913 5916 5917 5918 5917 5909 5911 5904 5912 5913 5913 5910 5908 5910 5913 5910 5904 5900 5901 5904 5899 5902 5902 5901 5899 5898 5899 5899 5897 5895 5892 5889 5888 5887 5887 5883 5885
5908 5908 5909 5911 5910 5912 5912 5914 5915 5916 5917 5914 5910 5907 5907 5903 5904 5898 5903 5907 5911 5913 5910 5907 5901 5896 5897 5897 5899 5898 5897 5893 5893 5893 5892 5893 5891 5889 5887 5886 5886 5884 5880 5879
5906 5908 5907 5910 5912 5911 5909 5910 5912 5914 5912 5905 5907 5902 5901 5901 5906 5873 5900 5901 5904 5906 5907 5904 5901 5896 5895 5892 5894 5891 5891 5858 5879 5889 5888 5886 5886 5884 5882 5883 5883 5882 5878 5876
5904 5905 5909 5909 5910 5909 5908 5911 5911 5911 5912 5909 5904 5907 5903 5903 5901 5895 5897 5899 5898 5899 5898 5900 5901 5896 5894 5893 5891 5893 5888 5885 5881 5879 5882 5882 5880 5879 5877 5877 5876 5877 5875 5871
5901 5902 5903 5905 5906 5906 5907 5906 5908 5908 5909 5909 5901 5899 5901 5898 5896 5895 5894 5894 5893 5892 5893 5894 5896 5895 5888 5890 5882 5881 5880 5877 5875 5872 5872 5872 5873 5873 5871 5869 5869 5869 5868 5864
5897 5899 5900 5904 5904 5901 5902 5903 5902 5903 5905 5906 5904 5898 5887 5893 5896 5893 5892 5889 5887 5884 5884 5883 5885 5883 5882 5883 5878 5876 5874 5872 5867 5862 5862 5863 5864 5863 5863 5862 5860 5860 5860 5857
5894 5897 5895 5899 5895 5893 5894 5898 5899 5897 5900 5900 5897 5893 5888 5889 5887 5886 5885 5884 5881 5880 5877 5874 5875 5875 5870 5869 5868 5866 5864 5860 5858 5856 5853 5851 5852 5852 5853 5854 5852 5850 5850 5848
5887 5888 5892 5893 5890 5888 5888 5888 5890 5889 5892 5893 5894 5887 5885 5884 5883 5882 5881 5882 5879 5872 5867 5864 5862 5859 5858 5855 5854 5854 5852 5850 5848 5846 5843 5841 5840 5839 5839 5841 5843 5841 5838 5838
5881 5883 5883 5884 5886 5881 5883 5885 5885 5882 5881 5884 5882 5882 5879 5880 5881 5880 5880 5877 5871 5865 5860 5857 5854 5851 5845 5841 5839 5836 5836 5837 5835 5830 5828 5826 5826 5825 5824 5824 5828 5830 5827 5828
5876 5876 5876 5877 5880 5879 5881 5882 5881 5881 5880 5880 5880 5877 5873 5872 5870 5871 5870 5867 5863 5859 5855 5850 5845 5839 5833 5828 5824 5822 5819 5819 5820 5816 5812 5811 5811 5811 5810 5810 5812 5815 5815 5814
5870 5871 5872 5872 5872 5874 5876 5875 5874 5873 5876 5877 5872 5870 5868 5866 5864 5862 5858 5854 5851 5847 5842 5836 5832 5829 5825 5820 5812 5806 5804 5801 5800 5802 5802 5797 5796 5796 5796 5796 5796 5799 5801 5801
5864 5866 5865 5865 5864 5867 5866 5863 5866 5864 5868 5867 5866 5864 5862 5860 5855 5853 5850 5846 5840 5835 5830 5824 5819 5814 5809 5804 5800 5796 5793 5791 5788 5786 5786 5785 5783 5783 5783 5784 5784 5784 5785 5786
5859 5859 5861 5859 5858 5858 5853 5858 5861 5859 5856 5858 5858 5856 5853 5850 5847 5842 5837 5831 5826 5820 5814 5808 5803 5799 5795 5791 5787 5784 5781 5779 5777 5774 5772 5772 5772 5772 5772 5771 5772 5772 5772 5772
5854 5852 5854 5854 5852 5850 5849 5851 5854 5853 5852 5849 5848 5847 5844 5840 5837 5832 5826 5821 5815 5807 5799 5792 5787 5782 5779 5776 5773 5770 5766 5764 5762 5760 5758 5758 5759 5760 5761 5761 5761 5760 5761 5760
5850 5850 5849 5849 5847 5844 5844 5847 5848 5846 5843 5842 5838 5835 5832 5829 5824 5819 5813 5807 5801 5794 5788 5782 5776 5770 5766 5762 5759 5756 5753 5751 5749 5746 5744 5743 5744 5746 5746 5747 5748 5747 5747 5749
5844 5845 5844 5843 5841 5838 5839 5840 5841 5839 5836 5833 5831 5827 5823 5818 5814 5809 5802 5795 5788 5781 5774 5767 5760 5754 5750 5746 5742 5740 5740 5737 5733 5731 5731 5729 5728 5729 5731 5731 5731 5732 5733 5734
5837 5838 5838 5836 5834 5832 5833 5834 5833 5831 5828 5826 5823 5817 5813 5810 5804 5799 5792 5785 5777 5768 5760 5752 5745 5738 5732 5728 5725 5723 5722 5720 5718 5716 5716 5714 5712 5711 5712 5712 5713 5716 5717 5718
5828 5830 5832 5831 5829 5825 5825 5825 5824 5823 5821 5817 5814 5809 5806 5800 5795 5789 5783 5774 5766 5757 5748 5740 5732 5724 5718 5712 5710 5709 5707 5706 5703 5702 5701 5698 5695 5694 5694 5695 5697 5699 5702 5702
5825 5826 5824 5823 5825 5821 5820 5819 5819 5817 5812 5809 5805 5803 5797 5792 5787 5782 5774 5765 5757 5749 5740 5732 5724 5715 5707 5701 5698 5697 5696 5693 5690 5687 5685 5682 5680 5679 5679 5680 5681 5683 5685 5687